Regional Weather Roundup
Issued by NWS Kansas City/Pleasant Hill, MO

Home | Current Version | Previous Version | Graphics & Text | Print | Product List | Glossary Off
Versions: 1 2 3 4 5 6 7 8 9 10 11 12 13 14 15 16 17 18 19 20 21 22 23 24 25 26 27 28 29 30 31 32 33 34 35 36 37 38 39 40 41 42 43 44 45 46 47 48 49 50

000
ASUS43 KEAX 301610
RWREAX

WEATHER ROUNDUP FOR EASTERN KANSAS AND NORTHWEST MISSOURI
NATIONAL WEATHER SERVICE KANSAS CITY/PLEASANT HILL MO
1100 AM CDT THU JUL 30 2015

KSZ040-057-103>105-MOZ028-029-037-043-301700-
...KANSAS CITY METROPOLITAN AREA...

CITY           SKY/WX    TMP DP  RH WIND       PRES   REMARKS
K.C. INTL      PTSUNNY   81  66  60 W6        30.23R
K.C. DOWNTOWN  PTSUNNY   83  66  56 N5        30.22R
LEES SUMMIT    PTSUNNY   84  55  36 S5        30.23R
OLATHE - IXD   CLOUDY    82  58  43 CALM      30.24R
OLATHE - OJC   PTSUNNY   80  58  46 SW6       30.23R
LAWRENCE       PTSUNNY   81  67  62 CALM      30.23R

$$

MOZ001>008-011>017-020>025-030>033-038>040-044>046-053-054-301700-
...NORTHERN AND CENTRAL MISSOURI...

CITY           SKY/WX    TMP DP  RH WIND       PRES   REMARKS
ST. JOSEPH       N/A     80  70  71 VRB3      30.22S
MOSBY          MOSUNNY   81  59  47 CALM      30.22R
WARRENSBURG    MOSUNNY   81  61  50 CALM      30.22R
WHITEMAN AFB   PTSUNNY   83  58  41 VRB1      30.21R
CLINTON          N/A     84  63  48 SE3       30.21S
SEDALIA        MOSUNNY   85  55  35 SE6       30.22S
WARSAW         NOT AVBL
CHILLICOTHE      N/A     82  65  56 NW6       30.22R
KIRKSVILLE     SUNNY     83  61  47 NW9       30.21S

$$

MOZ041-047>049-056>058-063>065-088>090-097-301700-
...EASTERN AND SOUTHERN MISSOURI...

CITY           SKY/WX    TMP DP  RH WIND       PRES   REMARKS
ST. LOUIS INTL MOSUNNY   86  59  39 N3        30.18R
SPIRIT OF STL  SUNNY     84  65  52 CALM      30.17R
COLUMBIA       SUNNY     85  55  35 CALM      30.21R
JEFFERSON CITY SUNNY     82  63  52 CALM      30.19S
ROLLA          SUNNY     82  57  42 E5        30.21R
OSAGE BEACH    SUNNY     81  63  54 SE3       30.22R
SPRINGFIELD    MOSUNNY   81  59  47 NE8       30.22R
BRANSON        MOSUNNY   79  61  53 E12       30.23S
JOPLIN         MOSUNNY   83  62  49 E10       30.21R
WEST PLAINS    SUNNY     81  59  47 E7        30.23R

$$

IAZ060-094-KSZ022-034>040-054-083-096-NEZ052-066-093-301700-
...KANSAS...SOUTHEAST NEBRASKA AND IOWA...

CITY           SKY/WX    TMP DP  RH WIND       PRES   REMARKS
TOPEKA         PTSUNNY   79  67  66 CALM      30.23S
MANHATTAN      PTSUNNY   78  67  68 S3        30.24S
EMPORIA        CLOUDY    72  68  87 W3        30.25S
CHANUTE        CLOUDY    82  66  58 E8        30.22R
WICHITA        TSTM      71  68  90 SE8       30.25F
OMAHA          MOSUNNY   82  60  47 CALM      30.20F
LINCOLN        SUNNY     83  63  50 SW8       30.22S
FALLS CITY     SUNNY     80  68  66 W6        30.22S
LAMONI         SUNNY     80  65  59 W9        30.21S
DES MOINES     MOSUNNY   83  60  45 W10       30.17R

$$



USA.gov is the U.S. government's official web portal to all federal, state and local government web resources and services.